EW4337 Weather Reports


Display with metric or nautical units.
time (UTC)temp
F
wind
direction
speed
MPH
gust
MPH
rain 1hr
in
rain 24hr
in
rain mn
in
humidity
%
barometer
mb
20171125040705 34 211 0.0 0.0 0.00 0.05 0.00 96 1010.0
20171125035704 34 211 0.0 0.0 0.00 0.05 0.00 97 1010.0
20171125034705 34 211 0.0 0.0 0.00 0.05 0.00 97 1010.1
20171125033705 35 211 0.0 0.0 0.00 0.05 0.00 96 1010.3
20171125032705 35 211 0.0 0.0 0.00 0.05 0.00 97 1010.2
20171125031705 36 211 0.0 0.0 0.00 0.05 0.00 97 1010.3
20171125030705 36 211 0.0 0.0 0.00 0.05 0.00 97 1010.2
20171125024705 37 211 0.0 0.0 0.00 0.05 0.00 97 1010.4
20171125023705 37 211 0.0 0.0 0.00 0.05 0.00 97 1010.6
20171125022705 37 211 0.0 0.0 0.00 0.05 0.00 97 1010.6
20171125021706 37 211 0.0 0.0 0.00 0.05 0.00 97 1010.8
20171125020704 37 211 0.0 0.0 0.00 0.05 0.00 97 1010.9
20171125015704 37 211 0.0 1.0 0.00 0.05 0.00 97 1011.0
20171125011704 37 211 0.0 0.0 0.00 0.05 0.00 97 1011.1
20171125010704 37 211 0.0 0.0 0.00 0.05 0.00 97 1011.1
20171125005705 37 211 0.0 0.0 0.00 0.05 0.00 97 1011.1
20171125004704 38 211 0.0 0.0 0.00 0.05 0.00 97 1011.1
20171125002705 38 211 0.0 0.0 0.00 0.05 0.00 97 1011.3
20171125001704 38 211 0.0 0.0 0.00 0.05 0.00 97 1011.3
20171124235705 38 211 0.0 0.0 0.00 0.05 0.00 97 1011.6
20171124234704 38 211 0.0 0.0 0.00 0.05 0.00 97 1011.6
20171124233704 38 211 0.0 0.0 0.00 0.05 0.00 97 1011.7
20171124232706 38 211 0.0 0.0 0.00 0.05 0.00 96 1011.7
20171124231704 38 211 0.0 1.0 0.00 0.05 0.00 96 1011.7
20171124225704 38 211 0.0 0.0 0.00 0.05 0.05 97 1011.9
20171124224705 38 211 0.0 0.0 0.00 0.05 0.05 97 1011.8
20171124223704 38 211 0.0 0.0 0.00 0.05 0.05 96 1012.0
20171124222704 38 211 0.0 0.0 0.00 0.05 0.05 96 1012.0
20171124220704 38 211 0.0 0.0 0.00 0.05 0.05 96 1011.9
20171124215704 38 211 0.0 0.0 0.00 0.05 0.05 96 1011.8
20171124213705 38 211 0.0 0.0 0.00 0.05 0.05 96 1011.9
20171124212704 38 211 0.0 0.0 0.00 0.05 0.05 96 1011.9
20171124211704 38 211 0.0 0.0 0.00 0.05 0.05 96 1011.7
20171124210705 38 211 0.0 0.0 0.00 0.05 0.05 96 1011.7
20171124205704 39 211 0.0 0.0 0.00 0.05 0.05 96 1011.7
20171124204705 39 211 0.0 1.0 0.00 0.05 0.05 96 1011.8
20171124202704 39 211 0.0 3.0 0.00 0.05 0.05 96 1011.8
20171124201704 39 180 0.0 0.0 0.00 0.05 0.05 96 1011.9
20171124200704 39 180 0.0 1.0 0.00 0.05 0.05 95 1012.0
20171124195704 39 180 0.0 2.0 0.00 0.05 0.05 96 1012.0
20171124194704 39 180 0.0 3.0 0.00 0.05 0.05 96 1011.9
20171124193703 39 216 0.0 0.0 0.00 0.05 0.05 95 1011.9
20171124192704 40 216 0.0 2.0 0.00 0.05 0.05 96 1011.9
20171124191704 40 216 0.0 3.0 0.00 0.05 0.05 95 1011.8
20171124190703 40 213 0.0 0.0 0.00 0.05 0.05 95 1011.8
20171124184704 41 213 0.0 6.0 0.00 0.05 0.05 95 1011.8
20171124183704 41 208 0.0 3.0 0.00 0.05 0.05 95 1011.7
20171124182704 41 214 0.0 0.0 0.00 0.05 0.05 95 1011.7
20171124180704 41 214 0.0 3.0 0.00 0.05 0.05 95 1011.5
20171124175704 42 214 0.0 3.0 0.00 0.05 0.05 95 1011.6
20171124174705 42 214 1.0 5.0 0.00 0.05 0.05 95 1011.5
20171124172704 42 206 0.0 6.0 0.00 0.05 0.05 94 1011.6
20171124171704 42 202 0.0 6.0 0.00 0.05 0.05 94 1011.6
20171124170704 42 202 0.0 3.0 0.00 0.05 0.05 94 1011.5
20171124165705 42 213 0.0 3.0 0.00 0.05 0.05 94 1011.2
20171124164704 43 211 0.0 3.0 0.00 0.05 0.05 93 1011.2
20171124163704 43 211 0.0 6.0 0.00 0.05 0.05 93 1011.1
20171124162704 43 213 0.0 3.0 0.00 0.05 0.05 93 1011.1
20171124161705 43 227 1.0 5.0 0.00 0.05 0.05 93 1011.1
20171124160705 44 217 2.0 10.0 0.00 0.05 0.05 93 1011.0
20171124155705 44 240 3.0 10.0 0.00 0.05 0.05 93 1011.0
20171124154705 44 232 1.0 5.0 0.00 0.05 0.05 93 1010.9
20171124153705 44 201 3.0 9.0 0.00 0.05 0.05 92 1010.8
20171124152704 44 210 0.0 5.0 0.00 0.05 0.05 92 1010.8
20171124151704 44 215 0.0 5.0 0.00 0.05 0.05 92 1010.8
20171124150705 44 209 1.0 7.0 0.00 0.05 0.05 92 1010.8
20171124145705 44 204 1.0 5.0 0.00 0.06 0.05 91 1010.7
20171124142705 45 192 0.0 3.0 0.00 0.06 0.05 90 1010.4
20171124141705 46 208 1.0 3.0 0.00 0.06 0.05 89 1010.3
20171124140704 46 233 1.0 8.0 0.00 0.06 0.05 89 1010.2
20171124134705 46 239 2.0 12.0 0.00 0.08 0.05 89 1010.0
20171124133704 46 246 7.0 13.0 0.01 0.10 0.05 88 1009.8
20171124132704 47 234 5.0 12.0 0.01 0.17 0.05 89 1009.8
20171124131705 47 238 7.0 12.0 0.01 0.17 0.05 89 1009.7
20171124130705 47 226 6.0 12.0 0.01 0.17 0.05 89 1009.8
20171124125704 47 229 4.0 9.0 0.01 0.17 0.05 90 1009.6
20171124124706 47 227 5.0 10.0 0.01 0.17 0.05 89 1009.6
20171124123705 47 188 3.0 7.0 0.00 0.17 0.04 91 1009.4
20171124122704 47 227 1.0 7.0 0.00 0.17 0.04 93 1009.4
20171124121704 46 244 3.0 10.0 0.00 0.17 0.04 93 1009.4
20171124120704 46 219 5.0 10.0 0.00 0.17 0.04 93 1009.3
20171124115704 46 232 2.0 8.0 0.00 0.17 0.04 94 1009.4
20171124114704 46 215 3.0 8.0 0.00 0.17 0.04 95 1009.4
20171124113707 45 221 4.0 12.0 0.00 0.17 0.04 95 1009.3
20171124111705 45 190 3.0 9.0 0.00 0.17 0.04 96 1009.2
20171124110705 45 213 3.0 8.0 0.00 0.18 0.04 96 1009.2
20171124105704 45 237 2.0 6.0 0.00 0.18 0.04 96 1009.1
20171124104704 45 231 2.0 8.0 0.00 0.18 0.04 96 1009.0
20171124103704 45 235 2.0 6.0 0.00 0.18 0.04 96 1008.8
20171124102705 44 221 0.0 7.0 0.00 0.18 0.04 96 1008.7
20171124101705 44 204 2.0 10.0 0.01 0.18 0.04 96 1008.5
20171124095705 44 192 1.0 6.0 0.02 0.19 0.04 96 1008.6
20171124094704 44 220 4.0 10.0 0.02 0.19 0.04 96 1008.5
20171124093705 44 261 2.0 9.0 0.02 0.20 0.04 96 1008.2
20171124092705 44 171 3.0 10.0 0.02 0.20 0.04 96 1008.3
20171124090705 44 271 2.0 9.0 0.02 0.19 0.03 96 1008.3
20171124085706 44 271 3.0 9.0 0.01 0.18 0.02 96 1008.2
20171124084704 44 244 5.0 9.0 0.01 0.18 0.02 96 1007.8
20171124083704 44 225 0.0 6.0 0.01 0.17 0.02 96 1007.7
20171124082704 44 214 2.0 7.0 0.01 0.17 0.02 96 1007.4
20171124081704 44 193 2.0 3.0 0.01 0.17 0.02 96 1007.1
20171124080704 44 267 0.0 0.0 0.01 0.17 0.02 96 1007.1
20171124075705 44 267 0.0 0.0 0.01 0.17 0.02 96 1007.0
20171124074705 44 267 0.0 7.0 0.01 0.17 0.02 96 1007.0
20171124073704 44 272 4.0 7.0 0.00 0.17 0.01 96 1006.9
20171124072704 44 223 2.0 7.0 0.00 0.17 0.01 96 1006.7
20171124071704 44 223 0.0 6.0 0.00 0.17 0.01 96 1006.7
20171124070705 44 198 1.0 6.0 0.00 0.17 0.01 96 1006.3
20171124064704 44 199 1.0 5.0 0.00 0.17 0.01 96 1006.4
20171124063704 44 211 1.0 5.0 0.00 0.17 0.01 96 1006.3
20171124062704 44 213 0.0 3.0 0.00 0.17 0.01 95 1006.0
20171124061704 44 202 0.0 7.0 0.00 0.17 0.01 95 1006.1
20171124060704 44 183 1.0 10.0 0.00 0.17 0.01 95 1006.1
20171124055705 45 184 4.0 10.0 0.00 0.17 0.01 95 1005.9
20171124054704 45 169 2.0 9.0 0.01 0.17 0.01 95 1006.1
20171124053704 45 148 1.0 7.0 0.01 0.17 0.01 95 1006.1
20171124051705 45 167 1.0 3.0 0.01 0.17 0.01 94 1006.0
20171124045705 45 237 0.0 3.0 0.01 0.17 0.01 94 1006.1
20171124043704 45 190 0.0 7.0 0.00 0.16 0.00 93 1006.0
20171124042704 45 195 2.0 9.0 0.00 0.16 0.00 93 1006.2